Regional Weather Roundup
Issued by NWS

Home | Current Version | Previous Version | Text Only | Print | Product List | Glossary Off
Versions: 1 2 3 4 5 6 7 8 9 10 11 12 13 14 15 16 17 18 19 20 21 22 23 24 25 26 27 28 29 30 31 32 33 34 35 36 37 38 39 40 41 42 43 44 45 46 47 48 49 50

746
ASUS43 KIND 260709
RWRIN

WEATHER ROUNDUP FOR INDIANA
NATIONAL WEATHER SERVICE INDIANAPOLIS IN
300 AM EDT MON SEP 26 2016

NOTE: "FAIR" INDICATES FEW OR NO CLOUDS BELOW 12,000 FEET WITH NO
SIGNIFICANT WEATHER AND/OR OBSTRUCTIONS TO VISIBILITY.

* - STATION DOES NOT REPORT WEATHER SUCH AS PRECIPITATION OR FOG.

+ - STATION NOT QUALITY CONTROLLED BY THE NATIONAL WEATHER SERVICE.
    USE DATA WITH CAUTION...ESPECIALLY DEWPOINT AND RELATIVE
    HUMIDITY OBSERVATIONS.

INZ001>003-010>013-019-020-260800-
NORTHWEST INDIANA

CITY           SKY/WX    TMP DP  RH WIND       PRES   REMARKS
GARY /AIRPORT/ CLOUDY    68  53  58 W14       29.98R
KNOX *+        CLOUDY    66  43  42 W5        29.95S
LA PORTE +     CLOUDY    67  59  76 NW5       29.96S
MICHIGAN CITY+ CLOUDY    64  54  68 MISG      29.96R
MONTICELLO +   MOCLDY    66  58  75 NW7       29.96R
RENSSELAER +   CLOUDY    64  59  82 W7G16     29.98R
VALPARAISO     CLOUDY    66  53  63 NW8G17    29.96S

$$

LMZ046-743>745-260800-
SOUTHERN LAKE MICHIGAN

STATION/POSITION TIME  TEMP    WIND        PRES    WAVE
                       AIR SEA DIR/SP/G            HT
                 (UTC) (F)     (DEG/KT/KT) (MB)    (FT)
BURNS HARBOR     0604   67     290/ 16/ 18 1014.6S
MICHIGAN CITY    0600   67     260/ 19/ 20   N/A
5NW MICH CITY    0700   68 67  290/ 16/ 21   N/A     5

$$

INZ004-005-014>016-021>024-260800-
NORTH CENTRAL INDIANA

CITY           SKY/WX    TMP DP  RH WIND       PRES   REMARKS
GOSHEN         LGT RAIN  68  60  75 NW13G23   29.93R
LOGANSPORT +   MOCLDY    68  64  88 NW8       29.96S
PERU/GRISSOM   PTCLDY    69  68  95 W9        29.93F
ROCHESTER +    PTCLDY    70  70 100 W7        29.94S
SOUTH BEND     CLOUDY    64  59  83 W8        29.95S
WARSAW +       CLOUDY    68  64  88 SW6       29.93S

$$

INZ006>009-017-018-025>027-260800-
NORTHEAST INDIANA

CITY           SKY/WX    TMP DP  RH WIND       PRES   REMARKS
ANGOLA *+        N/A     64  63  94 S6        29.92F
AUBURN +       CLOUDY    68  64  88 SW3       29.93S
FORT WAYNE     CLOUDY    70  66  87 SW7       29.93S
HUNTINGTON +   CLOUDY    71  68  90 SW3       29.93S
KENDALLVILLE + DRIZZLE   68  67  95 SW6       29.93F

$$

INZ028-029-035-036-043>045-051>053-260800-
WEST CENTRAL INDIANA

CITY           SKY/WX    TMP DP  RH WIND       PRES   REMARKS
CRAWFORDSVL +  CLOUDY    64  64 100 W7        30.00R
GREENCASTLE +  CLOUDY    70  70 100 NW3       29.99R
LAFAYETTE      MOCLDY    65  61  87 W9        29.97R
TERRE HAUTE    CLOUDY    69  59  70 NW10G23   30.00R

$$

INZ030>032-037>040-046>048-054>057-064-065-260800-
CENTRAL INDIANA

CITY           SKY/WX    TMP DP  RH WIND       PRES   REMARKS
FISHERS *+     CLOUDY    70  70 100 CALM      29.95
GREENWOOD *+   CLOUDY   N/A N/A N/A W6        29.98R
INDIANAPOLIS   LGT RAIN  72  69  90 SW8       29.97R
-EAGLE CREEK   CLOUDY    72  67  84 VRB3      29.95S
MARION +       CLOUDY    70  67  88 SW5       29.95S
MT COMFORT *+  CLOUDY    70  68  94 S3        29.96F
SHELBYVILLE    PTCLDY    72  66  81 VRB7      29.96S
ZIONSVILLE +   CLOUDY    70  67  90 W6        29.96F

$$

INZ033-034-041-042-049-050-058-059-260800-
EAST CENTRAL INDIANA

CITY           SKY/WX    TMP DP  RH WIND       PRES   REMARKS
MUNCIE         TSTM      71  67  87 SW9G20    29.95F FOG

$$

INZ060-061-067>069-081>083-085>088-260800-
SOUTHWEST INDIANA

CITY           SKY/WX    TMP DP  RH WIND       PRES   REMARKS
EVANSVILLE     CLEAR     73  68  84 W3        29.97F
HUNTINGBURG *+   N/A     70  63  78 S3        29.97F
WASHINGTON +   MOCLDY    74  69  86 MISG      29.96S

$$

INZ062-063-066-070>080-084-089>092-260800-
SOUTH CENTRAL AND SOUTHEAST INDIANA

CITY           SKY/WX    TMP DP  RH WIND       PRES   REMARKS
BLOOMINGTON    LGT RAIN  73  66  78 NW6       29.97S
MADISON *+     CLEAR     68  64  88 S5        30.00F
NORTH VERNON + CLEAR    N/A N/A N/A S3        29.98F
SEYMOUR +      CLEAR     68  66  94 CALM      29.96F

$$





USA.gov is the U.S. government's official web portal to all federal, state and local government web resources and services.